This demonstration page uses our WeatherBlox Daily Observations layout. Learn more.

Left ArrowRight Arrow

Hourly Observations for October 30, 2018

Temp ( °F °C ) Dew Point ( °F °C ) Humidity (%) Winds ( mph kmh ) Pressure ( in mb ) Visibility ( mi km ) Precip ( " mm )
12:53 am 00:53 Clear 60 15.6 58 14.4 93 93 SE 5 7 29.83 1010 10 16 0.00 0.00
1:53 am 01:53 Clear 58 14.4 57 13.9 97 97 SE 7 11 29.82 1010 9 14 0.00 0.00
2:53 am 02:53 Clear 57 13.9 56 13.3 96 96 SSE 7 11 29.81 1010 10 16 0.00 0.00
3:53 am 03:53 Clear 57 13.9 57 13.9 100 100 SE 9 15 29.80 1009 8 13 0.00 0.00
4:53 am 04:53 Clear 57 13.9 56 13.3 96 96 SSE 7 11 29.79 1009 7 11 0.00 0.00
5:53 am 05:53 Clear 55 12.8 54 12.2 96 96 N 3 6 29.80 1009 10 16 0.00 0.00
6:53 am 06:53 Clear 54 12.2 52 11.1 93 93 ESE 5 7 29.82 1010 9 14 0.00 0.00
7:53 am 07:53 Clear 53 11.7 52 11.1 96 96 S 5 7 29.83 1010 9 14 0.00 0.00
8:53 am 08:53 Sunny 54 12.2 53 11.7 97 97 S 8 13 29.85 1011 9 14 0.00 0.00
9:53 am 09:53 Sunny 63 17.2 55 12.8 76 76 SW 7 11 29.86 1011 10 16 0.00 0.00
10:53 am 10:53 Sunny 70 21.1 51 10.6 51 51 WSW 8 13 29.85 1011 10 16 0.00 0.00
11:53 am 11:53 Sunny 75 23.9 50 10 41 41 W 14 22 29.85 1011 10 16 0.00 0.00
12:53 pm 12:53 Sunny 77 25 50 10 39 39 W 13 20 29.83 1010 10 16 0.00 0.00
1:53 pm 13:53 Sunny 82 27.8 48 8.9 31 31 WSW 12 19 29.79 1009 10 16 0.00 0.00
2:53 pm 14:53 Sunny 83 28.3 46 7.8 27 27 WSW 18 30 29.76 1008 10 16 0.00 0.00
3:53 pm 15:53 Sunny 83 28.3 44 6.7 25 25 W 21 33 29.75 1008 10 16 0.00 0.00
4:53 pm 16:53 Sunny 82 27.8 43 6.1 25 25 W 18 30 29.76 1008 10 16 0.00 0.00
5:53 pm 17:53 Sunny 79 26.1 43 6.1 28 28 W 10 17 29.77 1008 10 16 0.00 0.00
6:53 pm 18:53 Sunny 71 21.7 49 9.4 46 46 W 8 13 29.79 1009 10 16 0.00 0.00
7:53 pm 19:53 Clear 68 20 48 8.9 49 49 W 6 9 29.81 1010 10 16 0.00 0.00
8:53 pm 20:53 Clear 68 20 50 10 53 53 WNW 5 7 29.82 1010 10 16 0.00 0.00
9:53 pm 21:53 Clear 63 17.2 54 12.2 73 73 NW 5 7 29.81 1010 10 16 0.00 0.00
10:53 pm 22:53 Clear 64 17.8 49 9.4 58 58 ESE 9 15 29.81 1010 10 16 0.00 0.00
11:53 pm 23:53 Clear 62 16.7 49 9.4 62 62 ESE 9 15 29.80 1009 10 16 0.00 0.00

Powered by AerisWeather